Simultaneous Nadir Overpasses (SNOs) Predictions

Prediction of SNOs between LANDSAT-8 and NPP Satellite Orbit:

Table of predicted SNOs for the next 14.0 days since TLE Epoch: 3/3/2017
Index Date (LANDSAT-8) Time (LANDSAT-8) Lat,Lon (LANDSAT-8) SZA (LANDSAT-8 ) Date (NPP) Time (NPP) Lat,Lon (NPP) SZA (NPP ) Distance(km) Time Diff (sec)
1 03/05/2017 22:25:11 -70.40, 20.47 103.90 03/05/2017 22:23:59 -70.50, 19.71 103.76 30.22 72
2 03/05/2017 23:14:42 70.08,-172.35 75.79 03/05/2017 23:14:37 70.06,-172.31 75.77 2.78 5
3 03/06/2017 00:04:12 -69.97, -4.88 104.34 03/06/2017 00:05:19 -69.98, -4.86 104.34 1.31 67
4 03/08/2017 14:41:42 -70.17, 136.01 105.17 03/08/2017 14:40:45 -70.17, 136.00 105.16 0.26 57
5 03/08/2017 15:31:09 70.06, -56.50 74.72 03/08/2017 15:31:29 70.05, -56.52 74.71 0.98 20
6 03/08/2017 16:20:51 -69.29, 110.08 106.02 03/08/2017 16:21:59 -69.33, 111.86 106.06 70.20 68
7 03/11/2017 06:58:10 -70.14,-108.15 106.25 03/11/2017 06:57:38 -70.16,-108.20 106.22 2.69 32
8 03/11/2017 07:47:37 70.03, 59.34 73.64 03/11/2017 07:48:22 70.05, 59.27 73.65 3.13 45
9 03/13/2017 22:25:05 70.38,-159.56 72.94 03/13/2017 22:23:53 70.46,-160.22 73.05 26.06 72
10 03/13/2017 23:14:38 -70.11, 7.69 107.34 03/13/2017 23:14:30 -70.10, 7.67 107.35 1.83 8
11 03/14/2017 00:04:05 70.00, 175.17 72.55 03/14/2017 00:05:14 69.99, 175.14 72.53 1.66 69
12 03/16/2017 14:41:36 70.18, -43.97 71.68 03/16/2017 14:40:41 70.20, -44.02 71.71 2.85 55
13 03/16/2017 15:31:06 -70.07, 123.52
